Seldovia, AK

4:35 AM AKST on February 24, 2017 (GMT -0900)
Seldovia

Weather History for PASO - April, 2013

Change the Weather History Date:

Wednesday, April 10, 2013

  Actual Average (PAHO) Record (PAHO)
Temperature  
Mean Temperature 16 °F -  
Max Temperature 21 °F 40 °F 55 °F (1997)
Min Temperature 14 °F 27 °F 7 °F (1968)
Degree Days  
Heating Degree Days 48    
Moisture  
Dew Point 3 °F    
Average Humidity 55    
Maximum Humidity 64    
Minimum Humidity 48    
Precipitation  
Precipitation 0.00 in - - ()
Sea Level Pressure  
Sea Level Pressure 29.83 in    
Wind  
Wind Speed 10 mph (SSW)    
Max Wind Speed 16 mph    
Max Gust Speed 26 mph    
Visibility 10 miles    
Events      
Averages and records for this station are not official NWS values.
T = Trace of Precipitation, MM = Missing Value Source: NWS Daily Summary

Daily Weather History Graph

Daily Weather History Graph

Search for Another Location

Airport or City:

Trip Planner

Search our weather history database for the weather conditions in past years. The results will help you decide how hot, cold, wet, or windy it might be!

Date:

Astronomy

Apr. 10, 2013 Rise Set
Actual Time 7:04 AM AKDT 9:12 PM AKDT
Civil Twilight 6:20 AM AKDT 9:56 PM AKDT
Nautical Twilight 5:24 AM AKDT 10:54 PM AKDT
Astronomical Twilight 4:12 AM AKDT 12:07 AM AKDT
Moon 6:57 AM AKDT (4/10) 10:17 PM AKDT (4/10)
Length of Visible Light 15h 35m
Length of Day
14h 07m
New Moon, 0% of the Moon is Illuminated
Apr 10
New Moon
Apr 18
First Quarter
Apr 25
Full
May 2
Last Quarter
May 9
New

Hourly Weather History & Observations

Time (AKDT) Temp. Windchill Dew Point Humidity Pressure Visibility Wind Dir Wind Speed Gust Speed Precip Events Conditions
12:53 AM 15.1 °F 1.8 °F 1.9 °F 56% 29.61 in 10.0 mi SSW 11.5 mph 26.5 mph N/A   Overcast
1:53 AM 15.1 °F 4.2 °F 1.9 °F 56% 29.65 in 10.0 mi SSW 8.1 mph 25.3 mph N/A   Overcast
2:53 AM 15.1 °F 1.8 °F 3.0 °F 59% 29.67 in 10.0 mi South 11.5 mph 19.6 mph N/A   Overcast
3:53 AM 14.0 °F 1.2 °F 1.9 °F 59% 29.69 in 10.0 mi SSW 10.4 mph 20.7 mph N/A   Overcast
4:53 AM 14.0 °F 3.9 °F 3.0 °F 62% 29.71 in 10.0 mi South 6.9 mph 18.4 mph N/A   Overcast
5:53 AM 14.0 °F 1.2 °F 3.0 °F 62% 29.73 in 10.0 mi SSW 10.4 mph 20.7 mph N/A   Overcast
6:53 AM 14.0 °F -0.2 °F 3.9 °F 64% 29.75 in 10.0 mi SSW 12.7 mph 23.0 mph N/A   Overcast
7:53 AM 14.0 °F -2.0 °F 3.0 °F 62% 29.76 in 10.0 mi South 16.1 mph 20.7 mph N/A   Overcast
8:44 AM 14.0 °F -0.2 °F 3.2 °F 62% 29.78 in 10.0 mi South 12.7 mph 19.6 mph N/A   Overcast
8:53 AM 14.0 °F 2.0 °F 3.0 °F 62% 29.78 in 10.0 mi SSW 9.2 mph 18.4 mph N/A   Overcast
10:53 AM 15.1 °F 2.5 °F -0.0 °F 51% 29.82 in 10.0 mi SSW 10.4 mph 25.3 mph N/A   Overcast
11:53 AM 17.1 °F 3.0 °F 3.0 °F 54% 29.83 in 10.0 mi SSW 13.8 mph 25.3 mph N/A   Overcast
12:53 PM 18.0 °F 4.2 °F 3.9 °F 54% 29.86 in 10.0 mi SSW 13.8 mph 20.7 mph N/A   Overcast
1:53 PM 19.0 °F 7.5 °F 3.9 °F 52% 29.88 in 10.0 mi South 10.4 mph - N/A   Overcast
2:53 PM 19.9 °F 7.9 °F 5.0 °F 52% 29.90 in 10.0 mi SSW 11.5 mph 17.3 mph N/A   Mostly Cloudy
3:53 PM 19.0 °F 12.3 °F 3.0 °F 50% 29.94 in 10.0 mi Variable 4.6 mph - N/A   Mostly Cloudy
4:53 PM 19.0 °F 7.5 °F 3.9 °F 52% 29.94 in 10.0 mi South 10.4 mph 16.1 mph N/A   Overcast
5:53 PM 19.9 °F - 3.9 °F 50% 29.94 in 10.0 mi Calm Calm - N/A   Mostly Cloudy
6:53 PM 19.9 °F - 3.9 °F 50% 29.94 in 10.0 mi Calm Calm - N/A   Overcast
7:53 PM 19.9 °F - 3.9 °F 50% 29.94 in 10.0 mi Calm Calm - N/A   Overcast
8:53 PM 19.9 °F 10.1 °F 3.0 °F 48% 29.95 in 10.0 mi South 8.1 mph - N/A   Overcast
9:53 PM 19.9 °F 11.1 °F 5.0 °F 52% 29.97 in 10.0 mi Variable 6.9 mph - N/A   Overcast
10:53 PM 19.9 °F 13.4 °F 5.0 °F 52% 29.98 in 10.0 mi Variable 4.6 mph - N/A   Overcast
11:53 PM 19.9 °F 11.1 °F 5.0 °F 52% 29.99 in 10.0 mi Variable 6.9 mph - N/A   Overcast